Change the Weather History Date:

Wednesday, January 1, 2014

  Actual Average Record
Temperature  
Mean Temperature 19 °F -  
Max Temperature 21 °F 36 °F 62 °F (1973)
Min Temperature 17 °F 19 °F -12 °F (1964)
Degree Days  
Heating Degree Days 46    
Moisture  
Dew Point 15 °F    
Average Humidity 84    
Maximum Humidity 93    
Minimum Humidity 78    
Precipitation  
Precipitation 0.02 in - - ()
Sea Level Pressure  
Sea Level Pressure 30.25 in    
Wind  
Wind Speed 5 mph (NE)    
Max Wind Speed 9 mph    
Max Gust Speed -    
Visibility 4 miles    
Events Snow    
Averages and records for this station are not official NWS values.
T = Trace of Precipitation, MM = Missing Value Source: NWS Daily Summary

Daily Weather History Graph

Daily Weather History Graph

Search for Another Location

Airport or City:

Trip Planner

Search our weather history database for the weather conditions in past years. The results will help you decide how hot, cold, wet, or windy it might be!

Date:

Astronomy

Jan. 01, 2014 Rise Set
Actual Time 7:47 AM EST 5:01 PM EST
Civil Twilight 7:16 AM EST 5:32 PM EST
Nautical Twilight 6:41 AM EST 6:07 PM EST
Astronomical Twilight 6:07 AM EST 6:41 PM EST
Moon 7:35 AM EST (1/1) 5:45 PM EST (1/1)
Length of Visible Light 10h 16m
Length of Day
9h 13m
New Moon, 0% of the Moon is Illuminated
Jan 1
New Moon
Jan 7
First Quarter
Jan 15
Full
Jan 24
Last Quarter
Jan 30
New

Hourly Weather History & Observations

Time (EST) Temp. Windchill Dew Point Humidity Pressure Visibility Wind Dir Wind Speed Gust Speed Precip Events Conditions
12:09 AM 17.6 °F 7.3 °F 12.2 °F 79% 30.22 in 3.0 mi WSW 8.1 mph - 0.00 in Snow Light Snow
12:53 AM 17.1 °F 6.6 °F 12.0 °F 81% 30.31 in 3.0 mi West 8.1 mph - 0.00 in Snow Light Snow
1:07 AM 17.6 °F 7.3 °F 12.2 °F 79% 30.23 in 2.5 mi WSW 8.1 mph - 0.00 in Snow Light Snow
1:25 AM 17.6 °F 7.3 °F 12.2 °F 79% 30.24 in 3.0 mi WSW 8.1 mph - 0.00 in Snow Light Snow
1:53 AM 17.1 °F 10.0 °F 12.9 °F 84% 30.32 in 4.0 mi WSW 4.6 mph - 0.00 in Snow Light Snow
2:53 AM 17.1 °F 11.7 °F 12.9 °F 84% 30.32 in 3.0 mi WSW 3.5 mph - 0.00 in Snow Light Snow
3:53 AM 17.1 °F 11.7 °F 14.0 °F 88% 30.32 in 4.0 mi SW 3.5 mph - 0.00 in Snow Light Snow
4:53 AM 17.1 °F 10.0 °F 12.9 °F 84% 30.30 in 4.0 mi South 4.6 mph - 0.00 in Snow Light Snow
5:27 AM 17.6 °F - 14.0 °F 86% 30.23 in 2.0 mi Calm Calm - 0.00 in Snow Light Snow
5:53 AM 17.1 °F 10.0 °F 14.0 °F 88% 30.31 in 2.5 mi SSW 4.6 mph - 0.01 in Snow Light Snow
6:05 AM 17.6 °F 10.7 °F 14.0 °F 86% 30.24 in 4.0 mi SSW 4.6 mph - 0.00 in Snow Light Snow
6:24 AM 17.6 °F 10.7 °F 14.0 °F 86% 30.24 in 2.0 mi SSW 4.6 mph - 0.00 in Snow Light Snow
6:31 AM 17.6 °F 12.3 °F 14.0 °F 86% 30.24 in 1.8 mi SSW 3.5 mph - 0.00 in Snow Light Snow
6:53 AM 17.1 °F - 14.0 °F 88% 30.32 in 2.0 mi Calm Calm - 0.00 in Snow Light Snow
7:09 AM 17.6 °F 10.7 °F 14.0 °F 86% 30.24 in 2.5 mi SSW 4.6 mph - 0.00 in Snow Light Snow
7:20 AM 17.6 °F 10.7 °F 14.0 °F 86% 30.24 in 3.0 mi South 4.6 mph - 0.00 in Snow Light Snow
7:53 AM 17.1 °F 11.7 °F 14.0 °F 88% 30.32 in 3.0 mi SSW 3.5 mph - 0.00 in Snow Light Snow
8:19 AM 17.6 °F 12.3 °F 14.0 °F 86% 30.26 in 2.5 mi SSW 3.5 mph - 0.00 in Snow Light Snow
8:35 AM 17.6 °F - 14.0 °F 86% 30.26 in 1.5 mi Calm Calm - 0.00 in Snow Light Snow
8:49 AM 17.6 °F - 14.0 °F 86% 30.26 in 2.5 mi Calm Calm - 0.00 in Snow Light Snow
8:53 AM 17.1 °F - 14.0 °F 88% 30.35 in 2.5 mi Calm Calm - 0.00 in Snow Light Snow
9:24 AM 17.6 °F - 15.8 °F 93% 30.27 in 3.0 mi Calm Calm - 0.00 in Snow Light Snow
9:36 AM 17.6 °F - 15.8 °F 93% 30.27 in 2.0 mi Calm Calm - 0.00 in Snow Light Snow
9:53 AM 19.0 °F - 15.1 °F 85% 30.35 in 2.0 mi Calm Calm - 0.00 in Snow Light Snow
10:02 AM 19.4 °F - 15.8 °F 86% 30.28 in 1.8 mi Calm Calm - 0.00 in Snow Light Snow
10:36 AM 19.4 °F - 15.8 °F 86% 30.29 in 2.0 mi Calm Calm - 0.00 in Snow Light Snow
10:53 AM 19.9 °F - 15.1 °F 81% 30.35 in 2.0 mi Calm Calm - 0.00 in Snow Light Snow
11:16 AM 19.4 °F - 15.8 °F 86% 30.27 in 3.0 mi Calm Calm - 0.00 in Snow Light Snow
11:31 AM 21.2 °F - 15.8 °F 80% 30.26 in 4.0 mi Calm Calm - 0.00 in Snow Light Snow
11:44 AM 19.4 °F 12.8 °F 15.8 °F 86% 30.25 in 2.0 mi NE 4.6 mph - 0.00 in Snow Light Snow
11:51 AM 19.4 °F 12.8 °F 14.0 °F 80% 30.25 in 1.8 mi ENE 4.6 mph - 0.00 in Snow Light Snow
11:53 AM 19.9 °F 13.4 °F 14.0 °F 78% 30.32 in 1.5 mi ENE 4.6 mph - 0.00 in Snow Light Snow
12:05 PM 19.4 °F 12.8 °F 15.8 °F 86% 30.24 in 1.8 mi NE 4.6 mph - 0.01 in Snow Light Snow
12:11 PM 21.2 °F 13.6 °F 15.8 °F 80% 30.24 in 2.0 mi NNE 5.8 mph - 0.01 in Snow Light Snow
12:17 PM 21.2 °F 14.9 °F 15.8 °F 80% 30.23 in 3.0 mi NE 4.6 mph - 0.01 in Snow Light Snow
12:53 PM 21.0 °F 13.4 °F 15.1 °F 78% 30.29 in 5.0 mi NE 5.8 mph - 0.01 in Snow Light Snow
1:40 PM 21.2 °F 13.6 °F 15.8 °F 80% 30.21 in 1.8 mi NE 5.8 mph - 0.00 in Snow Light Snow
1:53 PM 21.0 °F 13.4 °F 15.1 °F 78% 30.27 in 1.8 mi NE 5.8 mph - 0.00 in Snow Light Snow
2:47 PM 21.2 °F 13.6 °F 15.8 °F 80% 30.19 in 2.0 mi NE 5.8 mph - 0.00 in Snow Light Snow
2:53 PM 21.0 °F 13.4 °F 16.0 °F 81% 30.26 in 2.0 mi NE 5.8 mph - 0.00 in Snow Light Snow
3:04 PM 21.2 °F 13.6 °F 15.8 °F 80% 30.19 in 1.8 mi ENE 5.8 mph - 0.00 in Snow Light Snow
3:21 PM 21.2 °F 13.6 °F 15.8 °F 80% 30.18 in 2.5 mi NE 5.8 mph - 0.00 in Snow Light Snow
3:28 PM 21.2 °F 11.7 °F 15.8 °F 80% 30.18 in 4.0 mi NE 8.1 mph - 0.00 in Snow Light Snow
3:53 PM 21.0 °F 11.4 °F 16.0 °F 81% 30.25 in 5.0 mi NE 8.1 mph - 0.00 in Snow Light Snow
4:53 PM 21.0 °F 13.4 °F 16.0 °F 81% 30.24 in 10.0 mi NE 5.8 mph - 0.00 in   Overcast
5:53 PM 19.9 °F 13.4 °F 16.0 °F 85% 30.23 in 10.0 mi NNE 4.6 mph - N/A   Overcast
6:43 PM 19.4 °F 10.4 °F 15.8 °F 86% 30.16 in 10.0 mi NE 6.9 mph - N/A   Overcast
6:53 PM 19.0 °F 11.1 °F 15.1 °F 85% 30.23 in 10.0 mi NE 5.8 mph - N/A   Mostly Cloudy
7:53 PM 19.9 °F 10.1 °F 15.1 °F 81% 30.22 in 10.0 mi NE 8.1 mph - N/A   Overcast
8:37 PM 19.4 °F 10.4 °F 15.8 °F 86% 30.13 in 10.0 mi NNE 6.9 mph - N/A   Overcast
8:53 PM 19.9 °F 11.1 °F 15.1 °F 81% 30.20 in 10.0 mi NE 6.9 mph - N/A   Overcast
9:13 PM 19.4 °F 9.5 °F 15.8 °F 86% 30.12 in 10.0 mi NE 8.1 mph - N/A   Overcast
9:53 PM 19.0 °F 9.0 °F 15.1 °F 85% 30.17 in 10.0 mi NE 8.1 mph - N/A   Overcast
10:45 PM 19.4 °F 10.4 °F 14.0 °F 80% 30.09 in 10.0 mi NE 6.9 mph - N/A   Overcast
10:53 PM 19.0 °F 9.0 °F 14.0 °F 81% 30.15 in 10.0 mi NE 8.1 mph - N/A   Overcast
11:53 PM 19.0 °F 8.2 °F 14.0 °F 81% 30.13 in 10.0 mi NE 9.2 mph - N/A   Overcast